Regional Weather Roundup
Issued by NWS Charleston, SC

Current Version | Previous Version | Text Only | Print | Product List | Glossary Off
Versions: 1 2 3 4 5 6 7 8 9 10 11 12 13 14 15 16 17 18 19 20 21 22 23 24 25 26 27 28 29 30 31 32 33 34 35 36 37 38 39 40 41 42 43 44 45 46 47 48 49 50

000
ASUS42 KCHS 291912
RWRCHS

REGIONAL WEATHER ROUNDUP
NATIONAL WEATHER SERVICE CHARLESTON SC
300 PM EDT SAT AUG 29 2015

NOTE: "FAIR" INDICATES FEW OR NO CLOUDS BELOW 12,000 FEET WITH NO
SIGNIFICANT WEATHER AND/OR OBSTRUCTIONS TO VISIBILITY.

NOT ALL STATIONS ARE QUALITY CONTROLLED BY THE NATIONAL
WEATHER SERVICE. USE DATA WITH CAUTION...ESPECIALLY
DEWPOINT OBSERVATIONS.

SCZ027-030-031-034>040-042>050-292000-
...SOUTHEAST SOUTH CAROLINA...

CITY           SKY/WX    TMP DP  RH WIND       PRES   REMARKS
N CHARLESTON   CLOUDY    79  67  66 N7        30.16S
WATERFRONT PRK   N/A     81  72  74 N9        30.13F
MOUNT PLEASANT FAIR      81  72  74 N3        30.15F
JOHNS ISLAND   MOCLDY    81  72  74 N5        30.16R
PINOPOLIS        N/A     84  61  45 NE8       30.10R
MONCKS CORNER  DRIZZLE   81  64  57 CALM      30.16F
SUMMERVILLE    FAIR      79  68  69 CALM      30.17F
BEAUFORT MCAS  CLOUDY    81  71  71 NE10      30.15F
BEAUFORT ARPT  FAIR      81  72  74 N7        30.16S
HILTON HEAD IS MOSUNNY   79  70  73 N8        30.17F
WALTERBORO     CLOUDY    81  63  54 NE3       30.18S
ALLENDALE      FAIR      84  61  45 VRB7G13   30.16F

...SOUTHERN MIDLANDS AND PEE DEE...

CITY           SKY/WX    TMP DP  RH WIND       PRES   REMARKS
GEORGETOWN     NOT AVBL
KINGSTREE      NOT AVBL
ORANGEBURG     CLOUDY    85  57  38 E8        30.17F
BARNWELL       FAIR      88  55  33 E10       30.17F
AIKEN          FAIR      82  52  34 E9        30.21F
MANNING        FAIR      81  54  39 NE8       30.17F
COLUMBIA       PTSUNNY   89  52  28 E12       30.16F
SUMTER         CLOUDY    86  55  34 NE13      30.16F
FLORENCE       CLOUDY    86  56  35 E12       30.17F
MYRTLE BEACH   PTSUNNY   84  68  58 N8        30.17F
N MYRTLE BEACH MOSUNNY   86  68  54 NE8       30.15F

$$

GAZ063-065-086>088-099>101-113>116-118-119-134>141-150-292000-
...SOUTHEAST GEORGIA...

CITY           SKY/WX    TMP DP  RH WIND       PRES   REMARKS
SAVANNAH ARPT  PTSUNNY   83  70  64 NE13      30.14F
HUNTER AAF     MOSUNNY   81  76  86 NE9       30.11F
FORT STEWART   MOSUNNY   83  72  68 E10       30.11S
STATESBORO     PTSUNNY   85  72  65 E5        30.14F HX  90
SYLVANIA       PTCLDY    87  71  59 E8        30.15F HX  92
CLAXTON        NOT AVBL

...CSRA...CENTRAL AND FAR SOUTHEAST GEORGIA...

CITY           SKY/WX    TMP DP  RH WIND       PRES   REMARKS
THOMSON        CLOUDY    86  64  46 E12       30.21F
AUGUSTA-BUSH   CLOUDY    84  61  45 E8        30.15F
AUGUSTA-DANIEL CLOUDY    85  61  44 E9        30.17F
SWAINSBORO     FAIR      86  70  58 NE9       30.15F HX  90
VIDALIA        HVY RAIN  75  73  94 NW6       30.14F
EASTMAN        MOCLDY    81  78  91 E9        30.15F
HAZLEHURST     CLOUDY    83  73  72 N10       30.12S
ALMA           PTSUNNY   85  71  63 E8        30.10F HX  90
WAYCROSS       PTSUNNY   90  76  64 E9        30.09F HX 101
JESUP          MOCLDY    88  75  66 E9        30.11F HX  97
BAXLEY         FAIR      86  72  62 E12       30.10F HX  92
BRUNSWICK      PTSUNNY   86  73  66 NE9G16    30.11F HX  93
SAINT SIMONS   PTSUNNY   84  72  67 E13       30.10F

$$

SCZ027-028-034-036>038-045-046-048>050-GAZ119-141-292000-
...LAKE AND SUPPLEMENTAL COASTAL OBSERVATIONS...

STATION/POSITION TIME  TEMP    WIND        PRES    WAVE   SWELL
                       AIR SEA DIR/SP/G            HT/PER HT/PER/DIR
                 (UTC) (F)     (DEG/KT/KT) (MB)    (FT/S) (FT/S/D)
UPR LAKE MARION  NOT AVBL
WINYAH BAY       1745   81      60/ 10     1021.0
LAKE MURRAY      1800   81      50/  1/  7 1022.0F
ACE BASIN NERRS  NOT AVBL
FORT PULASKI     NOT AVBL
SAPELO ISLAND    1800   85      60/  7     1020.0F

$$

ANZ835-935-AMZ111-154-330-350-352-354-370-450-454-472-292000-
...C-MAN AND BUOY OBSERVATIONS...

STATION/POSITION TIME  TEMP    WIND        PRES    WAVE   SWELL
                       AIR SEA DIR/SP/G            HT/PER HT/PER/DIR
                 (UTC) (F)     (DEG/KT/KT) (MB)    (FT/S) (FT/S/D)
BUOY 41004       1850   80 85   30/ 14/ 16 1020.1F   4/11   3/11
BUOY 41008       1850   79 85   50/ 14/ 17 1020.0F   4/11   2/110/11
FOLLY BEACH CMAN 1800   80      50/ 11/ 13 1021.3F
CAPERS NEARSHORE 1808   80      60/ 14/ 17 1021.4F
FRIPP NEARSHORE  1800   81      40/ 12/ 14 1021.0R


STATION/POSITION TIME  TEMP    WIND        PRES    WAVE   SWELL
                       AIR SEA DIR/SP/G            HT/PER HT/PER/DIR
                 (UTC) (F)     (DEG/KT/KT) (MB)    (FT/S) (FT/S/D)
5E ST. MARYS GA  1821      86                N/A     3/11   2/120/11
FRYING PAN BUOY  1850   80 81   20/ 16/ 17 1020.8F   4/ 6   2/110/10
BUOY 41025       1850   78 83   20/ 19/ 23 1019.8F   6/11   5/100/11
CAPE LOOKOUT NC  1900   80      40/ 18/ 22 1020.3F
BUOY 41002       1850   81 84  300/ 10/ 14 1020.8F   4/10   3/110/10
BUOY 41010       1820   85 86  110/ 10/ 12 1019.4F
ST AUGUSTINE FL  1900   83 87   80/  9/ 10 1019.3F


$$


USA.gov is the U.S. government's official web portal to all federal, state and local government web resources and services.